W0WFX-2 Weather Reports


time (UTC)temp
C
wind
direction
speed
KPH
gust
KPH
rain 1hr
cm
rain 24hr
cm
rain mn
cm
humidity
%
barometer
mb
20260906175015 37 106 0.0 1.6 0.00 0.00 0.00 43 1014.9
20260906174513 38 108 3.2 3.2 0.00 0.00 0.00 41 1014.9
20260906174009 38 155 1.6 1.6 0.00 0.00 0.00 40 1015.0
20260906173509 37 113 0.0 0.0 0.00 0.00 0.00 41 1015.2
20260906173004 37 132 1.6 1.6 0.00 0.00 0.00 41 1015.2
20260906172459 37 115 1.6 3.2 0.00 0.00 0.00 39 1015.2
20260906171954 37 119 1.6 1.6 0.00 0.00 0.00 39 1015.3
20260906171449 37 155 1.6 1.6 0.00 0.00 0.00 40 1015.3
20260906170944 37 111 1.6 1.6 0.00 0.00 0.00 39 1015.5
20260906170441 38 112 1.6 1.6 0.00 0.00 0.00 41 1015.5
20260906165937 37 131 1.6 1.6 0.00 0.00 0.00 46 1015.5
20260906165436 37 89 1.6 3.2 0.00 0.00 0.00 43 1015.9
20260906164931 37 131 1.6 1.6 0.00 0.00 0.00 43 1015.9
20260906164430 37 104 1.6 1.6 0.00 0.00 0.00 40 1015.7
20260906163927 37 150 1.6 1.6 0.00 0.00 0.00 43 1015.9
20260906163422 37 139 1.6 1.6 0.00 0.00 0.00 43 1015.8
20260906162920 37 126 0.0 0.0 0.00 0.00 0.00 45 1015.9
20260906162419 36 124 0.0 0.0 0.00 0.00 0.00 46 1015.8
20260906161915 36 119 0.0 1.6 0.00 0.00 0.00 45 1015.8
20260906161414 36 126 0.0 0.0 0.00 0.00 0.00 47 1015.8
20260906160913 36 127 1.6 3.2 0.00 0.00 0.00 46 1015.8
20260906160407 36 137 1.6 1.6 0.00 0.00 0.00 48 1015.3
20260906155904 36 125 1.6 1.6 0.00 0.00 0.00 48 1015.5
20260906155359 36 157 0.0 1.6 0.00 0.00 0.00 48 1015.6
20260906154855 35 117 0.0 0.0 0.00 0.00 0.00 50 1015.8
20260906154349 35 111 1.6 1.6 0.00 0.00 0.00 50 1015.7
20260906153848 35 117 1.6 1.6 0.00 0.00 0.00 50 1015.8
20260906153347 35 122 1.6 1.6 0.00 0.00 0.00 51 1015.8
20260906152842 35 124 1.6 1.6 0.00 0.00 0.00 52 1015.7
20260906152337 33 103 0.0 0.0 0.00 0.00 0.00 54 1015.7
20260906151836 34 102 1.6 1.6 0.00 0.00 0.00 53 1015.7
20260906151332 33 123 1.6 1.6 0.00 0.00 0.00 54 1015.8
20260906150828 33 112 0.0 0.0 0.00 0.00 0.00 55 1015.5
20260906150323 32 103 3.2 3.2 0.00 0.00 0.00 55 1015.6
20260906145822 32 127 3.2 3.2 0.00 0.00 0.00 56 1015.8
20260906145321 32 98 1.6 1.6 0.00 0.00 0.00 57 1015.8
20260906144816 32 130 0.0 0.0 0.00 0.00 0.00 59 1015.8
20260906144311 31 128 3.2 3.2 0.00 0.00 0.00 61 1015.6
20260906143810 30 126 1.6 1.6 0.00 0.00 0.00 63 1015.7
20260906143308 30 126 0.0 0.0 0.00 0.00 0.00 66 1015.5
20260906142802 30 100 1.6 3.2 0.00 0.00 0.00 65 1015.7
20260906142257 30 99 1.6 1.6 0.00 0.00 0.00 66 1015.7
20260906141756 29 126 1.6 1.6 0.00 0.00 0.00 66 1015.5
20260906141251 29 120 3.2 1.6 0.00 0.00 0.00 66 1015.6
20260906140750 29 114 3.2 3.2 0.00 0.00 0.00 67 1015.9
20260906140245 28 127 1.6 1.6 0.00 0.00 0.00 68 1015.7
20260906135742 28 125 0.0 0.0 0.00 0.00 0.00 69 1015.5
20260906135238 28 147 0.0 0.0 0.00 0.00 0.00 68 1015.6
20260906134734 28 146 0.0 0.0 0.00 0.00 0.00 69 1015.6
20260906134229 28 147 1.6 1.6 0.00 0.00 0.00 68 1015.6
20260906133724 28 137 0.0 0.0 0.00 0.00 0.00 69 1015.3
20260906133220 27 139 0.0 0.0 0.00 0.00 0.00 69 1015.3
20260906132715 27 139 0.0 0.0 0.00 0.00 0.00 70 1015.3
20260906132210 27 137 0.0 0.0 0.00 0.00 0.00 70 1015.2
20260906131706 27 136 0.0 0.0 0.00 0.00 0.00 71 1015.3
20260906131201 27 136 0.0 0.0 0.00 0.00 0.00 72 1015.3
20260906130656 26 135 0.0 0.0 0.00 0.00 0.00 72 1015.1
20260906130151 26 136 1.6 1.6 0.00 0.00 0.00 73 1015.2
20260906125649 26 136 0.0 0.0 0.00 0.00 0.00 74 1015.1
20260906125148 26 136 1.6 1.6 0.00 0.00 0.00 74 1014.9
20260906124643 26 135 0.0 0.0 0.00 0.00 0.00 73 1015.0
20260906124139 26 135 0.0 0.0 0.00 0.00 0.00 74 1014.8
20260906123637 26 136 0.0 0.0 0.00 0.00 0.00 74 1014.8
20260906123133 25 135 0.0 0.0 0.00 0.00 0.00 74 1014.9
20260906122632 25 135 1.6 1.6 0.00 0.00 0.00 74 1014.7
20260906122128 25 136 0.0 0.0 0.00 0.00 0.00 76 1014.6
20260906121624 25 136 0.0 0.0 0.00 0.00 0.00 75 1014.5
20260906121120 25 136 0.0 0.0 0.00 0.00 0.00 75 1014.6
20260906120615 25 136 0.0 0.0 0.00 0.00 0.00 76 1014.7
20260906120113 25 136 0.0 0.0 0.00 0.00 0.00 76 1014.7
20260906115612 25 136 0.0 0.0 0.00 0.00 0.00 76 1014.6
20260906115109 25 136 0.0 0.0 0.00 0.00 0.00 75 1014.4
20260906114608 25 136 0.0 0.0 0.00 0.00 0.00 75 1014.6
20260906114103 25 136 0.0 0.0 0.00 0.00 0.00 74 1014.3
20260906113603 25 136 0.0 0.0 0.00 0.00 0.00 73 1014.5
20260906113058 25 137 0.0 0.0 0.00 0.00 0.00 74 1014.3
20260906112557 25 136 0.0 0.0 0.00 0.00 0.00 74 1014.4
20260906112055 25 136 0.0 0.0 0.00 0.00 0.00 74 1014.2
20260906111553 25 137 0.0 0.0 0.00 0.00 0.00 75 1014.5
20260906111049 25 137 0.0 0.0 0.00 0.00 0.00 76 1014.2
20260906110549 25 137 0.0 0.0 0.00 0.00 0.00 77 1014.3
20260906110048 25 137 0.0 0.0 0.00 0.00 0.00 76 1014.2
20260906105543 25 137 0.0 0.0 0.00 0.00 0.00 77 1014.3
20260906105039 25 137 0.0 0.0 0.00 0.00 0.00 76 1014.2
20260906104537 25 137 0.0 1.6 0.00 0.00 0.00 76 1014.4
20260906104032 25 137 0.0 0.0 0.00 0.00 0.00 78 1014.4
20260906103530 25 137 0.0 0.0 0.00 0.00 0.00 76 1014.2
20260906103026 25 137 0.0 0.0 0.00 0.00 0.00 78 1014.3
20260906102526 25 137 0.0 0.0 0.00 0.00 0.00 80 1014.2
20260906102021 25 137 0.0 0.0 0.00 0.00 0.00 80 1014.1
20260906101515 25 137 0.0 0.0 0.00 0.00 0.00 81 1014.2
20260906101010 25 137 0.0 0.0 0.00 0.00 0.00 82 1014.1
20260906100506 24 137 0.0 0.0 0.00 0.00 0.00 82 1014.1
20260906100006 24 137 0.0 0.0 0.00 0.00 0.00 82 1014.0
20260906095501 24 137 0.0 0.0 0.00 0.00 0.00 82 1014.2
20260906094956 24 137 0.0 0.0 0.00 0.00 0.00 82 1014.0
20260906094455 24 137 0.0 0.0 0.00 0.00 0.00 83 1014.0
20260906093951 24 137 0.0 0.0 0.00 0.00 0.00 82 1013.9
20260906093448 25 137 0.0 0.0 0.00 0.00 0.00 81 1013.9
20260906092948 25 137 0.0 0.0 0.00 0.00 0.00 81 1013.8
20260906092448 25 137 0.0 0.0 0.00 0.00 0.00 81 1013.9
20260906091943 25 137 0.0 0.0 0.00 0.00 0.00 80 1014.0
20260906091438 25 137 0.0 0.0 0.00 0.00 0.00 80 1013.7
20260906090935 25 137 0.0 0.0 0.00 0.00 0.00 80 1013.7
20260906090430 25 137 0.0 0.0 0.00 0.00 0.00 79 1013.6
20260906085924 25 137 0.0 0.0 0.00 0.00 0.00 79 1013.8
20260906085423 25 137 0.0 0.0 0.00 0.00 0.00 78 1013.6
20260906084922 25 137 0.0 0.0 0.00 0.00 0.00 78 1013.7
20260906084418 25 137 0.0 0.0 0.00 0.00 0.00 81 1013.6
20260906083917 25 137 0.0 0.0 0.00 0.00 0.00 79 1013.6
20260906083413 25 137 0.0 0.0 0.00 0.00 0.00 80 1013.6
20260906082912 25 137 0.0 0.0 0.00 0.00 0.00 80 1013.7
20260906082407 25 137 0.0 0.0 0.00 0.00 0.00 80 1013.6
20260906081903 25 137 0.0 0.0 0.00 0.00 0.00 80 1013.6
20260906081358 25 137 0.0 0.0 0.00 0.00 0.00 80 1013.6
20260906080854 25 137 0.0 0.0 0.00 0.00 0.00 80 1013.5
20260906080351 25 137 0.0 0.0 0.00 0.00 0.00 79 1013.8
20260906075849 25 137 0.0 0.0 0.00 0.00 0.00 79 1013.6
20260906075344 25 137 0.0 0.0 0.00 0.00 0.00 79 1013.4
20260906074840 25 137 0.0 0.0 0.00 0.00 0.00 78 1013.5
20260906074340 25 137 0.0 0.0 0.00 0.00 0.00 78 1013.5
20260906073838 25 137 0.0 0.0 0.00 0.00 0.00 78 1013.6
20260906073334 25 137 0.0 0.0 0.00 0.00 0.00 77 1013.6
20260906072830 25 137 0.0 0.0 0.00 0.00 0.00 77 1013.5
20260906072326 25 137 0.0 0.0 0.00 0.00 0.00 76 1013.5
20260906071822 25 137 0.0 0.0 0.00 0.00 0.00 76 1013.4
20260906071322 25 137 0.0 0.0 0.00 0.00 0.00 76 1013.5
20260906070818 26 137 0.0 0.0 0.00 0.00 0.00 75 1013.6
20260906070313 26 137 0.0 0.0 0.00 0.00 0.00 75 1013.5
20260906065305 26 137 0.0 0.0 0.00 0.00 0.00 74 1013.4
20260906064759 26 137 0.0 0.0 0.00 0.00 0.00 73 1013.7
20260906064255 26 137 0.0 0.0 0.00 0.00 0.00 73 1013.7
20260906063749 26 137 0.0 0.0 0.00 0.00 0.00 72 1013.8
20260906063245 26 137 0.0 0.0 0.00 0.00 0.00 72 1013.7
20260906062740 26 137 0.0 0.0 0.00 0.00 0.00 73 1013.6
20260906062239 26 137 0.0 0.0 0.00 0.00 0.00 73 1013.9
20260906061735 26 137 0.0 0.0 0.00 0.00 0.00 73 1013.7
20260906061231 26 137 0.0 0.0 0.00 0.00 0.00 73 1013.8
20260906060726 26 137 0.0 0.0 0.00 0.00 0.00 73 1013.7
20260906060224 26 137 0.0 0.0 0.00 0.00 0.00 73 1013.9
20260906055719 26 137 0.0 0.0 0.00 0.00 0.00 73 1013.8
20260906055214 27 137 0.0 0.0 0.00 0.00 0.00 72 1014.0
20260906054709 27 137 0.0 0.0 0.00 0.00 0.00 72 1014.0
20260906054204 27 137 0.0 0.0 0.00 0.00 0.00 72 1014.1
20260906053701 27 137 0.0 0.0 0.00 0.00 0.00 71 1014.2
20260906053156 27 137 0.0 0.0 0.00 0.00 0.00 71 1014.1
20260906052651 27 137 0.0 0.0 0.00 0.00 0.00 71 1014.0
20260906052148 27 137 0.0 0.0 0.00 0.00 0.00 70 1014.1
20260906051644 27 137 0.0 0.0 0.00 0.00 0.00 70 1013.8
20260906051143 27 137 0.0 0.0 0.00 0.00 0.00 70 1014.1
20260906050639 27 137 0.0 0.0 0.00 0.00 0.00 71 1013.9
20260906050134 27 137 0.0 0.0 0.00 0.00 0.00 71 1013.8
20260906045632 27 137 0.0 0.0 0.00 0.00 0.00 71 1014.0
20260906045128 27 137 0.0 0.0 0.00 0.00 0.00 70 1014.0
20260906044624 27 137 0.0 0.0 0.00 0.00 0.00 68 1013.9
20260906044119 27 137 0.0 0.0 0.00 0.00 0.00 67 1013.9
20260906043615 27 137 0.0 0.0 0.00 0.00 0.00 68 1014.1
20260906043110 27 137 0.0 0.0 0.00 0.00 0.00 69 1014.0
20260906042609 27 137 0.0 0.0 0.00 0.00 0.00 69 1014.1
20260906042104 27 137 0.0 0.0 0.00 0.00 0.00 69 1013.9
20260906041600 27 137 0.0 0.0 0.00 0.00 0.00 69 1013.9
20260906041054 27 137 0.0 0.0 0.00 0.00 0.00 68 1013.9
20260906040550 28 137 0.0 0.0 0.00 0.00 0.00 69 1013.7
20260906040045 28 137 0.0 0.0 0.00 0.00 0.00 69 1013.8
20260906035541 28 137 0.0 0.0 0.00 0.00 0.00 68 1013.7
20260906035037 28 137 0.0 0.0 0.00 0.00 0.00 69 1013.8
20260906034536 28 137 0.0 0.0 0.00 0.00 0.00 68 1013.5
20260906034031 28 137 0.0 0.0 0.00 0.00 0.00 67 1013.7
20260906033526 28 137 0.0 0.0 0.00 0.00 0.00 66 1013.5
20260906033022 28 137 0.0 0.0 0.00 0.00 0.00 66 1013.6
20260906032519 28 137 0.0 0.0 0.00 0.00 0.00 65 1013.6
20260906032018 28 137 0.0 0.0 0.00 0.00 0.00 65 1013.5
20260906031514 28 137 0.0 0.0 0.00 0.00 0.00 65 1013.4
20260906031009 29 137 0.0 0.0 0.00 0.00 0.00 64 1013.4
20260906030509 29 137 0.0 0.0 0.00 0.00 0.00 63 1013.1
20260906030009 29 137 0.0 0.0 0.00 0.00 0.00 63 1013.2
20260906025508 29 137 0.0 0.0 0.00 0.00 0.00 63 1013.0
20260906025007 30 137 0.0 0.0 0.00 0.00 0.00 65 1013.0
20260906024502 30 137 0.0 0.0 0.00 0.00 0.00 64 1012.9
20260906024002 30 137 0.0 0.0 0.00 0.00 0.00 64 1013.1
20260906023458 30 137 0.0 0.0 0.00 0.00 0.00 64 1013.0
20260906022953 30 137 0.0 0.0 0.00 0.00 0.00 63 1013.2
20260906022448 30 137 0.0 0.0 0.00 0.00 0.00 63 1013.1
20260906021943 30 137 0.0 0.0 0.00 0.00 0.00 60 1012.9
20260906021444 30 137 0.0 0.0 0.00 0.00 0.00 60 1012.7
20260906020938 30 137 0.0 0.0 0.00 0.00 0.00 59 1012.7
20260906020433 30 137 0.0 0.0 0.00 0.00 0.00 60 1012.6
20260906015927 30 137 0.0 0.0 0.00 0.00 0.00 60 1012.5
20260906015427 31 137 0.0 0.0 0.00 0.00 0.00 60 1012.5
20260906014926 31 137 0.0 0.0 0.00 0.00 0.00 60 1012.3
20260906014426 31 137 0.0 0.0 0.00 0.00 0.00 58 1012.5
20260906013922 31 137 0.0 0.0 0.00 0.00 0.00 57 1012.4
20260906013418 31 137 0.0 0.0 0.00 0.00 0.00 56 1012.4
20260906012914 31 137 0.0 0.0 0.00 0.00 0.00 56 1012.3
20260906012408 31 137 0.0 0.0 0.00 0.00 0.00 55 1012.3
20260906011907 31 137 0.0 0.0 0.00 0.00 0.00 55 1012.4
20260906011403 31 136 0.0 0.0 0.00 0.00 0.00 55 1012.4
20260906010858 32 136 0.0 0.0 0.00 0.00 0.00 55 1012.2
20260906010354 32 136 0.0 0.0 0.00 0.00 0.00 54 1012.3
20260906005850 32 136 0.0 0.0 0.00 0.00 0.00 53 1012.2
20260906005349 32 136 0.0 0.0 0.00 0.00 0.00 53 1012.2
20260906004848 32 136 0.0 0.0 0.00 0.00 0.00 52 1012.1
20260906004347 32 136 0.0 0.0 0.00 0.00 0.00 52 1012.2
20260906003842 32 136 0.0 0.0 0.00 0.00 0.00 51 1012.1
20260906003338 33 136 0.0 0.0 0.00 0.00 0.00 50 1012.1
20260906002833 33 138 0.0 0.0 0.00 0.00 0.00 50 1012.2
20260906002332 33 138 0.0 0.0 0.00 0.00 0.00 49 1012.2
20260906001828 33 138 0.0 0.0 0.00 0.00 0.00 49 1012.3
20260906001324 33 138 0.0 0.0 0.00 0.00 0.00 48 1012.2
20260906000819 33 137 0.0 0.0 0.00 0.00 0.00 48 1012.2
20260906000313 34 137 0.0 0.0 0.00 0.00 0.00 47 1012.1
20260905235808 34 137 0.0 0.0 0.00 0.00 0.00 47 1012.0
20260905235308 35 137 1.6 1.6 0.00 0.00 0.00 45 1012.0
20260905234804 35 131 1.6 1.6 0.00 0.00 0.00 45 1012.0
20260905234259 35 107 0.0 0.0 0.00 0.00 0.00 46 1012.0
20260905233754 35 134 1.6 0.0 0.00 0.00 0.00 45 1011.7
20260905233254 35 154 1.6 1.6 0.00 0.00 0.00 45 1011.9
20260905232753 35 132 0.0 0.0 0.00 0.00 0.00 45 1012.1
20260905232249 35 141 3.2 4.8 0.00 0.00 0.00 43 1011.9
20260905231745 35 139 0.0 0.0 0.00 0.00 0.00 44 1012.0
20260905231240 35 140 1.6 1.6 0.00 0.00 0.00 44 1011.7
20260905230736 35 101 1.6 1.6 0.00 0.00 0.00 44 1011.7
20260905230234 35 152 1.6 1.6 0.00 0.00 0.00 44 1011.9
20260905225734 35 151 1.6 1.6 0.00 0.00 0.00 44 1011.6
20260905225229 36 138 0.0 0.0 0.00 0.00 0.00 44 1011.6
20260905224728 35 140 0.0 0.0 0.00 0.00 0.00 44 1011.9
20260905224224 36 197 3.2 3.2 0.00 0.00 0.00 44 1011.5
20260905223720 36 104 0.0 0.0 0.00 0.00 0.00 43 1011.9
20260905223216 36 165 3.2 3.2 0.00 0.00 0.00 42 1012.0
20260905222712 37 166 0.0 0.0 0.00 0.00 0.00 40 1011.9
20260905222211 38 108 1.6 1.6 0.00 0.00 0.00 39 1012.0
20260905221707 38 161 0.0 0.0 0.00 0.00 0.00 40 1012.1
20260905221204 38 169 3.2 3.2 0.00 0.00 0.00 39 1011.9
20260905220659 38 165 4.8 6.4 0.00 0.00 0.00 39 1012.1
20260905220155 38 201 1.6 1.6 0.00 0.00 0.00 39 1012.3
20260905215654 38 161 1.6 1.6 0.00 0.00 0.00 37 1012.2
20260905215150 38 158 1.6 1.6 0.00 0.00 0.00 38 1012.1
20260905214646 38 107 1.6 1.6 0.00 0.00 0.00 38 1012.3
20260905214141 37 120 3.2 4.8 0.00 0.00 0.00 38 1012.3
20260905213636 37 170 1.6 1.6 0.00 0.00 0.00 39 1012.3
20260905213131 37 173 3.2 3.2 0.00 0.00 0.00 39 1012.5
20260905212627 37 90 3.2 1.6 0.00 0.00 0.00 35 1012.4
20260905212126 37 104 1.6 1.6 0.00 0.00 0.00 34 1012.2
20260905211621 38 102 1.6 1.6 0.00 0.00 0.00 33 1012.7
20260905211117 38 107 1.6 1.6 0.00 0.00 0.00 35 1012.6
20260905210613 37 104 1.6 1.6 0.00 0.00 0.00 35 1012.7
20260905210107 37 137 1.6 1.6 0.00 0.00 0.00 35 1012.7
20260905205607 37 118 1.6 1.6 0.00 0.00 0.00 34 1012.7
20260905205106 37 123 1.6 1.6 0.00 0.00 0.00 36 1012.7
20260905204601 36 71 3.2 4.8 0.00 0.00 0.00 37 1012.8
20260905204056 36 127 1.6 1.6 0.00 0.00 0.00 38 1012.7
20260905203556 36 186 3.2 4.8 0.00 0.00 0.00 37 1012.9
20260905203051 37 186 4.8 4.8 0.00 0.00 0.00 36 1012.9
20260905202546 37 148 3.2 3.2 0.00 0.00 0.00 34 1013.1
20260905202042 37 163 0.0 1.6 0.00 0.00 0.00 36 1013.1
20260905201538 37 101 1.6 0.0 0.00 0.00 0.00 37 1013.2
20260905201037 37 97 0.0 0.0 0.00 0.00 0.00 36 1013.1
20260905200533 38 88 3.2 3.2 0.00 0.00 0.00 35 1013.4
20260905200032 38 148 1.6 1.6 0.00 0.00 0.00 34 1013.6
20260905195526 38 123 0.0 0.0 0.00 0.00 0.00 34 1013.3
20260905195022 38 138 3.2 3.2 0.00 0.00 0.00 34 1013.5
20260905194522 38 158 1.6 1.6 0.00 0.00 0.00 38 1013.6
20260905194022 37 178 1.6 1.6 0.00 0.00 0.00 39 1013.5
20260905193522 37 109 1.6 1.6 0.00 0.00 0.00 36 1013.5
20260905193017 37 108 0.0 0.0 0.00 0.00 0.00 36 1013.9
20260905192512 37 128 1.6 1.6 0.00 0.00 0.00 36 1013.8
20260905192009 38 110 0.0 0.0 0.00 0.00 0.00 36 1013.7
20260905191507 37 124 1.6 1.6 0.00 0.00 0.00 36 1013.8
20260905191006 38 119 1.6 1.6 0.00 0.00 0.00 36 1013.9
20260905190504 38 136 4.8 6.4 0.00 0.00 0.00 33 1014.0
20260905190004 38 142 3.2 3.2 0.00 0.00 0.00 36 1013.8
20260905185458 38 118 1.6 0.0 0.00 0.00 0.00 34 1014.0
20260905184957 38 111 1.6 1.6 0.00 0.00 0.00 35 1014.0
20260905184452 39 114 3.2 3.2 0.00 0.00 0.00 34 1014.1
20260905183951 38 121 0.0 0.0 0.00 0.00 0.00 35 1014.1
20260905183450 38 101 0.0 0.0 0.00 0.00 0.00 35 1014.2
20260905182946 38 93 1.6 1.6 0.00 0.00 0.00 36 1014.3
20260905182445 37 118 1.6 1.6 0.00 0.00 0.00 37 1014.4
20260905181940 38 157 3.2 4.8 0.00 0.00 0.00 36 1014.5
20260905181435 38 163 4.8 4.8 0.00 0.00 0.00 36 1014.5
20260905180934 39 238 3.2 4.8 0.00 0.00 0.00 35 1014.6
20260905180429 38 124 1.6 1.6 0.00 0.00 0.00 36 1014.5
20260905175924 38 163 0.0 0.0 0.00 0.00 0.00 37 1014.6
20260905175424 38 108 1.6 1.6 0.00 0.00 0.00 37 1014.9